HJ3GNC-15 Weather Reports


time (UTC)temp
F
wind
direction
speed
knots
gust
knots
rain 1hr
in
rain 24hr
in
rain mn
in
humidity
%
barometer
mb
20260507101621 55 273 0.0 0.0 0.00 0.00 0.00 93 1016.0
20260507100041 55 273 0.0 0.0 0.00 0.00 0.00 93 1016.0
20260507094459 55 273 0.0 0.0 0.00 0.00 0.00 93 1016.0
20260507092916 55 271 0.0 0.0 0.00 0.00 0.00 93 1015.0
20260507091332 55 271 0.0 0.0 0.00 0.00 0.00 93 1015.0
20260507085747 55 271 0.0 0.0 0.00 0.00 0.00 93 1015.0
20260507084203 55 271 0.0 0.0 0.00 0.00 0.00 93 1015.0
20260507082620 56 274 0.0 0.0 0.00 0.00 0.00 93 1015.0
20260507081034 56 274 0.0 0.0 0.00 0.00 0.00 93 1015.0
20260507075450 56 274 0.0 0.0 0.00 0.00 0.00 93 1015.0
20260507073908 56 274 0.0 0.0 0.00 0.00 0.00 93 1015.0
20260507072321 56 270 0.0 0.0 0.00 0.00 0.00 93 1015.0
20260507070737 56 270 0.0 0.0 0.00 0.00 0.00 92 1015.0
20260507065148 57 270 0.0 0.0 0.00 0.00 0.00 91 1015.0
20260507063603 57 270 0.0 0.0 0.00 0.00 0.00 91 1015.0
20260507062020 57 269 0.0 0.0 0.00 0.00 0.00 90 1016.0
20260507060438 57 269 0.0 0.0 0.00 0.00 0.00 91 1016.0
20260507054855 57 266 0.0 0.0 0.00 0.00 0.00 91 1016.0
20260507053315 57 266 0.0 0.0 0.00 0.00 0.00 91 1016.0
20260507051732 58 267 0.0 0.0 0.00 0.00 0.00 90 1017.0
20260507050140 58 267 0.0 0.0 0.00 0.00 0.00 91 1017.0
20260507044554 58 267 0.0 0.0 0.00 0.00 0.00 92 1017.0
20260507043006 58 267 0.0 0.0 0.00 0.00 0.00 92 1017.0
20260507012046 59 268 0.0 0.0 0.00 0.00 0.00 90 1016.0
20260507010500 59 268 0.0 0.0 0.00 0.00 0.00 90 1016.0
20260507004911 59 268 0.0 0.0 0.00 0.00 0.00 92 1016.0
20260507003326 59 268 0.0 0.0 0.00 0.00 0.00 92 1016.0
20260506222656 66 176 0.0 0.0 0.00 0.00 0.00 82 1012.0
20260506221103 67 176 0.0 0.0 0.00 0.00 0.00 82 1012.0
20260506215518 67 176 0.0 0.0 0.00 0.00 0.00 83 1013.0
20260506213901 67 176 0.0 0.0 0.00 0.00 0.00 83 1013.0
20260506212233 68 161 0.0 0.0 0.00 0.00 0.00 74 1012.0
20260506210608 68 161 0.0 0.0 0.00 0.00 0.00 74 1012.0
20260506205020 68 161 0.0 0.0 0.00 0.00 0.00 74 1012.0
20260506203436 68 161 0.0 0.0 0.00 0.00 0.00 74 1012.0
20260506201847 68 163 0.0 0.0 0.00 0.00 0.00 68 1012.0
20260506200253 68 163 0.0 0.0 0.00 0.00 0.00 70 1012.0
20260506194705 68 163 0.0 0.0 0.00 0.00 0.00 69 1012.0
20260506193121 68 163 0.0 0.0 0.00 0.00 0.00 69 1012.0
20260506191535 67 180 0.0 0.0 0.00 0.00 0.00 69 1013.0
20260506185928 67 180 0.0 0.0 0.00 0.00 0.00 69 1013.0
20260506184339 67 180 0.0 0.0 0.00 0.00 0.00 69 1013.0
20260506182754 65 230 0.0 0.0 0.00 0.00 0.00 83 1015.0
20260506181210 64 230 0.0 0.0 0.00 0.00 0.00 85 1015.0
20260506175555 67 230 0.0 0.0 0.00 0.00 0.00 75 1013.0
20260506174008 67 193 0.0 0.0 0.00 0.00 0.00 75 1013.0
20260506142906 63 154 0.0 0.0 0.00 0.00 0.00 79 1016.0
20260506141314 62 154 0.0 0.0 0.00 0.00 0.00 80 1016.0
20260506135722 63 154 0.0 0.0 0.00 0.00 0.00 78 1016.0
20260506134136 63 154 0.0 0.0 0.00 0.00 0.00 78 1016.0
20260506132551 61 219 0.0 0.0 0.00 0.00 0.00 84 1016.0
20260506131007 61 219 0.0 0.0 0.00 0.00 0.00 84 1016.0
20260506125421 62 219 0.0 0.0 0.00 0.00 0.00 83 1016.0
20260506123833 61 219 0.0 0.0 0.00 0.00 0.00 83 1016.0